Change the Weather History Date:

Wednesday, October 17, 2012

  Actual Average Record
Temperature  
Mean Temperature 58 °F -  
Max Temperature 66 °F 64 °F 79 °F (1971)
Min Temperature 50 °F 41 °F 26 °F (1976)
Degree Days  
Heating Degree Days 6    
Growing Degree Days 8 (Base 50)    
Moisture  
Dew Point 49 °F    
Average Humidity 68    
Maximum Humidity 88    
Minimum Humidity 55    
Precipitation  
Precipitation 0.26 in - - ()
Sea Level Pressure  
Sea Level Pressure 29.45 in    
Wind  
Wind Speed 9 mph (SW)    
Max Wind Speed 20 mph    
Max Gust Speed 28 mph    
Visibility 10 miles    
Events Rain    
Averages and records for this station are not official NWS values.
T = Trace of Precipitation, MM = Missing Value Source: NWS Daily Summary

Daily Weather History Graph

Daily Weather History Graph

Search for Another Location

Airport or City:

Trip Planner

Search our weather history database for the weather conditions in past years. The results will help you decide how hot, cold, wet, or windy it might be!

Date:

Astronomy

Oct. 17, 2012 Rise Set
Actual Time 7:22 AM CDT 6:23 PM CDT
Civil Twilight 6:54 AM CDT 6:51 PM CDT
Nautical Twilight 6:22 AM CDT 7:23 PM CDT
Astronomical Twilight 5:50 AM CDT 7:54 PM CDT
Moon 9:58 AM CDT (10/17) 7:58 PM CDT (10/17)
Length of Visible Light 11h 56m
Length of Day
11h 01m
Waxing Crescent, 7% of the Moon is Illuminated
Oct 17
Waxing Crescent
Oct 21
First Quarter
Oct 29
Full
Nov 6
Last Quarter
Nov 13
New

Hourly Weather History & Observations

Time (CDT) Temp. Dew Point Humidity Pressure Visibility Wind Dir Wind Speed Gust Speed Precip Events Conditions
12:15 AM 62.6 °F 50.0 °F 63% 29.50 in 10.0 mi South 5.8 mph - N/A   Clear
12:35 AM 62.6 °F 50.0 °F 63% 29.50 in 10.0 mi South 6.9 mph - N/A   Clear
12:55 AM 60.8 °F 48.2 °F 63% 29.49 in 10.0 mi South 5.8 mph - N/A   Clear
1:15 AM 62.6 °F 48.2 °F 59% 29.49 in 10.0 mi South 6.9 mph - N/A   Clear
1:35 AM 62.6 °F 48.2 °F 59% 29.49 in 10.0 mi South 6.9 mph - N/A   Clear
1:55 AM 62.6 °F 48.2 °F 59% 29.49 in 10.0 mi South 9.2 mph - N/A   Clear
2:15 AM 62.6 °F 48.2 °F 59% 29.49 in 10.0 mi South 8.1 mph - N/A   Clear
2:35 AM 62.6 °F 48.2 °F 59% 29.49 in 10.0 mi South 8.1 mph - N/A   Clear
2:55 AM 62.6 °F 48.2 °F 59% 29.48 in 10.0 mi South 9.2 mph - N/A   Clear
3:15 AM 62.6 °F 48.2 °F 59% 29.47 in 10.0 mi South 8.1 mph - N/A   Clear
3:35 AM 62.6 °F 48.2 °F 59% 29.47 in 10.0 mi South 9.2 mph - N/A   Clear
3:55 AM 62.6 °F 46.4 °F 55% 29.46 in 10.0 mi South 10.4 mph - N/A   Clear
4:15 AM 62.6 °F 46.4 °F 55% 29.45 in 10.0 mi South 9.2 mph - N/A   Clear
4:35 AM 62.6 °F 48.2 °F 59% 29.45 in 10.0 mi South 9.2 mph - N/A   Clear
4:55 AM 62.6 °F 48.2 °F 59% 29.45 in 10.0 mi South 10.4 mph - N/A   Clear
5:15 AM 62.6 °F 48.2 °F 59% 29.45 in 10.0 mi South 9.2 mph - N/A   Clear
5:35 AM 62.6 °F 48.2 °F 59% 29.44 in 10.0 mi South 9.2 mph - N/A   Clear
5:55 AM 62.6 °F 48.2 °F 59% 29.44 in 10.0 mi South 6.9 mph - N/A   Clear
6:15 AM 62.6 °F 48.2 °F 59% 29.44 in 10.0 mi South 10.4 mph - N/A   Clear
6:35 AM 62.6 °F 48.2 °F 59% 29.43 in 10.0 mi South 10.4 mph - N/A   Clear
6:55 AM 62.6 °F 48.2 °F 59% 29.43 in 10.0 mi South 10.4 mph - N/A   Clear
7:15 AM 62.6 °F 48.2 °F 59% 29.43 in 10.0 mi South 9.2 mph - N/A   Clear
7:35 AM 62.6 °F 48.2 °F 59% 29.43 in 10.0 mi South 12.7 mph 17.3 mph N/A   Clear
7:55 AM 62.6 °F 50.0 °F 63% 29.42 in 10.0 mi South 12.7 mph - N/A   Clear
8:15 AM 62.6 °F 50.0 °F 63% 29.43 in 10.0 mi South 11.5 mph - N/A   Clear
8:35 AM 62.6 °F 50.0 °F 63% 29.43 in 10.0 mi South 9.2 mph - N/A   Light Drizzle
8:55 AM 62.6 °F 51.8 °F 68% 29.43 in 10.0 mi South 9.2 mph - N/A   Mostly Cloudy
9:15 AM 64.4 °F 51.8 °F 64% 29.42 in 10.0 mi South 10.4 mph - N/A   Mostly Cloudy
9:35 AM 64.4 °F 51.8 °F 64% 29.43 in 10.0 mi South 13.8 mph 19.6 mph N/A   Scattered Clouds
9:55 AM 64.4 °F 51.8 °F 64% 29.42 in 10.0 mi SSW 13.8 mph 19.6 mph N/A   Scattered Clouds
10:15 AM 66.2 °F 51.8 °F 60% 29.42 in 10.0 mi SSW 16.1 mph - N/A   Clear
10:35 AM 66.2 °F 51.8 °F 60% 29.43 in 10.0 mi SSW 13.8 mph 19.6 mph N/A   Clear
10:55 AM 66.2 °F 51.8 °F 60% 29.43 in 10.0 mi SSW 15.0 mph 23.0 mph N/A   Scattered Clouds
11:15 AM 66.2 °F 53.6 °F 64% 29.43 in 10.0 mi SW 16.1 mph 23.0 mph N/A   Scattered Clouds
11:55 AM 64.4 °F 55.4 °F 73% 29.44 in 7.0 mi SW 10.4 mph - N/A Rain Rain
12:15 PM 62.6 °F 55.4 °F 77% 29.45 in 10.0 mi SW 8.1 mph - N/A Rain Light Rain
12:35 PM 62.6 °F 55.4 °F 77% 29.44 in 10.0 mi South 5.8 mph - 0.01 in Rain Rain
12:55 PM 62.6 °F 57.2 °F 82% 29.42 in 10.0 mi SSW 3.5 mph - 0.03 in Rain Light Rain
1:15 PM 64.4 °F 57.2 °F 77% 29.40 in 10.0 mi SSW 3.5 mph - N/A   Light Drizzle
1:35 PM 64.4 °F 57.2 °F 77% 29.38 in 10.0 mi Calm Calm - N/A   Overcast
1:55 PM 64.4 °F 57.2 °F 77% 29.38 in 10.0 mi SSW 4.6 mph - N/A   Overcast
2:15 PM 64.4 °F 55.4 °F 73% 29.39 in 10.0 mi West 9.2 mph - N/A Rain Rain
2:35 PM 62.6 °F 53.6 °F 72% 29.41 in 10.0 mi West 10.4 mph - N/A Rain Light Rain
2:55 PM 60.8 °F 53.6 °F 77% 29.41 in 7.0 mi West 11.5 mph 16.1 mph 0.04 in Rain Rain
3:15 PM 57.2 °F 51.8 °F 82% 29.40 in 10.0 mi WNW 12.7 mph - 0.02 in Rain Rain
3:35 PM 57.2 °F 51.8 °F 82% 29.39 in 7.0 mi NW 12.7 mph - 0.04 in Rain Light Rain
3:55 PM 57.2 °F 51.8 °F 82% 29.41 in 10.0 mi WNW 11.5 mph - 0.04 in   Light Drizzle
4:15 PM 57.2 °F 51.8 °F 82% 29.41 in 10.0 mi WNW 12.7 mph - 0.05 in Rain Rain
4:35 PM 55.4 °F 51.8 °F 88% 29.43 in 10.0 mi West 8.1 mph - 0.07 in Rain Rain
4:55 PM 55.4 °F 51.8 °F 88% 29.43 in 10.0 mi West 4.6 mph - 0.10 in Rain Rain
5:15 PM 55.4 °F 51.8 °F 88% 29.43 in 10.0 mi West 6.9 mph - 0.02 in Rain Rain
5:35 PM 57.2 °F 51.8 °F 82% 29.43 in 10.0 mi West 6.9 mph - 0.04 in Rain Rain
5:55 PM 57.2 °F 51.8 °F 82% 29.44 in 10.0 mi West 5.8 mph - 0.05 in Rain Rain
6:15 PM 57.2 °F 51.8 °F 82% 29.45 in 10.0 mi West 8.1 mph - N/A   Mostly Cloudy
6:35 PM 57.2 °F 51.8 °F 82% 29.45 in 10.0 mi West 8.1 mph - N/A   Scattered Clouds
6:55 PM 55.4 °F 50.0 °F 82% 29.45 in 10.0 mi West 9.2 mph - N/A   Scattered Clouds
7:15 PM 55.4 °F 50.0 °F 82% 29.46 in 10.0 mi West 11.5 mph 16.1 mph N/A   Mostly Cloudy
7:35 PM 55.4 °F 48.2 °F 77% 29.45 in 10.0 mi West 13.8 mph - N/A   Scattered Clouds
7:55 PM 55.4 °F 46.4 °F 72% 29.46 in 10.0 mi West 17.3 mph 24.2 mph N/A   Mostly Cloudy
8:15 PM 55.4 °F 42.8 °F 63% 29.47 in 10.0 mi West 17.3 mph 24.2 mph N/A   Mostly Cloudy
8:35 PM 53.6 °F 42.8 °F 67% 29.46 in 10.0 mi WNW 13.8 mph 24.2 mph N/A   Mostly Cloudy
8:55 PM 53.6 °F 42.8 °F 67% 29.48 in 10.0 mi West 11.5 mph 17.3 mph N/A   Mostly Cloudy
9:15 PM 51.8 °F 42.8 °F 71% 29.48 in 10.0 mi West 9.2 mph - N/A   Scattered Clouds
9:35 PM 51.8 °F 42.8 °F 71% 29.47 in 10.0 mi West 6.9 mph - N/A   Clear
9:55 PM 51.8 °F 41.0 °F 67% 29.46 in 10.0 mi West 11.5 mph - N/A   Clear
10:15 PM 51.8 °F 39.2 °F 62% 29.46 in 10.0 mi West 19.6 mph 27.6 mph N/A   Clear
10:35 PM 51.8 °F 39.2 °F 62% 29.47 in 10.0 mi West 16.1 mph 21.9 mph N/A   Scattered Clouds
10:55 PM 51.8 °F 39.2 °F 62% 29.48 in 10.0 mi West 12.7 mph 18.4 mph N/A   Overcast
11:15 PM 51.8 °F 39.2 °F 62% 29.48 in 10.0 mi West 10.4 mph - N/A   Mostly Cloudy
11:35 PM 51.8 °F 39.2 °F 62% 29.47 in 10.0 mi West 10.4 mph - N/A   Scattered Clouds
11:55 PM 50.0 °F 37.4 °F 62% 29.47 in 10.0 mi West 15.0 mph - N/A   Clear